When you browse on this site, cookies collect data to enhance your experience and personalize the content and advertising you see.
Visit our Privacy Policy to learn more. By continuing to use the site, you agree to this use of cookies and data.
  • In Österreich
  • Länderverzeichnis
  • Für 7 Tage
  • Wassertemperatur
  • Wetterkarte
  • News
  • Widgets
  • user-avatar
    Anmelden

    Stündliche Wetter Nizhnee Sherkovo

    Heute, 2 Juni, Dienstag

    Zeit Temperatur Niederschläge Wind Luftdruck Luftfeuchtigkeit
    00:00 +8°C° 0.1 mm 5 m/S 746 mmHg 89%
    01:00 +7°C° 0.1 mm 5 m/S 746 mmHg 88%
    02:00 +7°C° 0 mm 6 m/S 745 mmHg 81%
    03:00 +7°C° 0.1 mm 6 m/S 745 mmHg 79%
    04:00 +7°C° 0.1 mm 6 m/S 745 mmHg 78%
    05:00 +7°C° 0.1 mm 6 m/S 744 mmHg 77%
    06:00 +8°C° 0.1 mm 6 m/S 745 mmHg 76%
    07:00 +8°C° 0.1 mm 6 m/S 745 mmHg 76%
    08:00 +8°C° 0 mm 6 m/S 744 mmHg 78%
    09:00 +8°C° 0.1 mm 6 m/S 744 mmHg 80%
    10:00 +8°C° 0.1 mm 7 m/S 744 mmHg 82%
    11:00 +8°C° 0.1 mm 7 m/S 744 mmHg 84%
    12:00 +8°C° 0 mm 7 m/S 744 mmHg 84%
    13:00 +8°C° 0 mm 7 m/S 744 mmHg 83%
    14:00 +8°C° 0 mm 7 m/S 744 mmHg 83%
    15:00 +9°C° 0 mm 6 m/S 744 mmHg 82%
    16:00 +9°C° 0 mm 6 m/S 744 mmHg 80%
    17:00 +10°C° 0 mm 6 m/S 744 mmHg 79%
    18:00 +9°C° 0 mm 6 m/S 744 mmHg 80%
    19:00 +9°C° 0 mm 6 m/S 744 mmHg 81%
    20:00 +9°C° 0 mm 5 m/S 744 mmHg 82%
    21:00 +8°C° 0.2 mm 5 m/S 744 mmHg 84%
    22:00 +8°C° 0.2 mm 4 m/S 743 mmHg 85%
    23:00 +8°C° 0.2 mm 4 m/S 743 mmHg 87%

    Morgen, 3 Juni, Mittwoch

    Zeit Temperatur Niederschläge Wind Luftdruck Luftfeuchtigkeit
    00:00 +8°C° 0.3 mm 4 m/S 743 mmHg 90%
    01:00 +9°C° 0.3 mm 3 m/S 743 mmHg 93%
    02:00 +9°C° 0.3 mm 3 m/S 743 mmHg 95%
    03:00 +9°C° 0.1 mm 3 m/S 743 mmHg 96%
    04:00 +9°C° 0.1 mm 3 m/S 742 mmHg 96%
    05:00 +9°C° 0.1 mm 3 m/S 742 mmHg 97%
    06:00 +9°C° 0 mm 2 m/S 742 mmHg 96%
    07:00 +10°C° 0 mm 2 m/S 742 mmHg 95%
    08:00 +12°C° 0 mm 2 m/S 742 mmHg 94%
    09:00 +13°C° 0 mm 2 m/S 742 mmHg 91%
    10:00 +14°C° 0 mm 2 m/S 742 mmHg 88%
    11:00 +14°C° 0 mm 2 m/S 742 mmHg 85%
    12:00 +15°C° 0.3 mm 2 m/S 742 mmHg 82%
    13:00 +16°C° 0.3 mm 2 m/S 742 mmHg 80%
    14:00 +17°C° 0.3 mm 2 m/S 742 mmHg 78%
    15:00 +16°C° 0.4 mm 2 m/S 741 mmHg 80%
    16:00 +16°C° 0.4 mm 2 m/S 741 mmHg 81%
    17:00 +16°C° 0.4 mm 3 m/S 741 mmHg 83%
    18:00 +15°C° 0.1 mm 2 m/S 740 mmHg 87%
    19:00 +14°C° 0.1 mm 2 m/S 740 mmHg 91%
    20:00 +12°C° 0.1 mm 2 m/S 740 mmHg 95%
    21:00 +12°C° 0 mm 1 m/S 740 mmHg 96%
    22:00 +11°C° 0 mm 1 m/S 740 mmHg 97%
    23:00 +10°C° 0 mm 1 m/S 739 mmHg 97%

    übermorgen, 4 Juni, Donnerstag

    Zeit Temperatur Niederschläge Wind Luftdruck Luftfeuchtigkeit
    00:00 +10°C° 0 mm 1 m/S 739 mmHg 97%
    01:00 +8°C° 0 mm 0 m/S 739 mmHg 97%
    02:00 +8°C° 0 mm 0 m/S 738 mmHg 97%
    03:00 +8°C° 0 mm 0 m/S 738 mmHg 97%
    04:00 +10°C° 0 mm 1 m/S 738 mmHg 97%
    05:00 +10°C° 0 mm 1 m/S 738 mmHg 96%
    06:00 +12°C° 0 mm 1 m/S 738 mmHg 91%
    07:00 +14°C° 0 mm 2 m/S 738 mmHg 85%
    08:00 +15°C° 0 mm 2 m/S 738 mmHg 79%
    09:00 +16°C° 0.1 mm 3 m/S 738 mmHg 73%
    10:00 +18°C° 0.1 mm 3 m/S 738 mmHg 67%
    11:00 +19°C° 0.1 mm 4 m/S 738 mmHg 61%
    12:00 +18°C° 0.4 mm 4 m/S 738 mmHg 63%
    13:00 +18°C° 0.4 mm 4 m/S 738 mmHg 66%
    14:00 +18°C° 0.4 mm 4 m/S 738 mmHg 69%
    15:00 +18°C° 0.3 mm 4 m/S 738 mmHg 71%
    16:00 +18°C° 0.3 mm 4 m/S 738 mmHg 73%
    17:00 +17°C° 0.3 mm 4 m/S 738 mmHg 75%
    18:00 +16°C° 0.2 mm 3 m/S 738 mmHg 80%
    19:00 +14°C° 0.2 mm 3 m/S 738 mmHg 86%
    20:00 +13°C° 0.2 mm 2 m/S 739 mmHg 92%
    21:00 +12°C° 0 mm 2 m/S 739 mmHg 93%
    22:00 +10°C° 0 mm 2 m/S 739 mmHg 95%
    23:00 +10°C° 0 mm 2 m/S 739 mmHg 96%

    5 Juni, Freitag

    Zeit Temperatur Niederschläge Wind Luftdruck Luftfeuchtigkeit
    00:00 +9°C° 0 mm 2 m/S 739 mmHg 97%
    01:00 +9°C° 0 mm 2 m/S 739 mmHg 97%
    02:00 +9°C° 0 mm 2 m/S 739 mmHg 97%
    03:00 +9°C° 0 mm 2 m/S 739 mmHg 97%
    04:00 +9°C° 0 mm 3 m/S 739 mmHg 97%
    05:00 +10°C° 0 mm 3 m/S 739 mmHg 97%
    06:00 +11°C° 0 mm 3 m/S 739 mmHg 91%
    07:00 +13°C° 0 mm 3 m/S 740 mmHg 85%
    08:00 +14°C° 0 mm 4 m/S 740 mmHg 79%
    09:00 +15°C° 0.4 mm 4 m/S 740 mmHg 76%
    10:00 +17°C° 0.4 mm 4 m/S 740 mmHg 74%
    11:00 +18°C° 0.4 mm 4 m/S 740 mmHg 71%
    12:00 +18°C° 0.4 mm 4 m/S 740 mmHg 68%
    13:00 +19°C° 0.4 mm 4 m/S 740 mmHg 66%
    14:00 +20°C° 0.4 mm 4 m/S 740 mmHg 63%
    15:00 +20°C° 0.1 mm 3 m/S 739 mmHg 63%
    16:00 +20°C° 0.1 mm 3 m/S 739 mmHg 62%
    17:00 +20°C° 0.1 mm 3 m/S 739 mmHg 62%
    18:00 +19°C° 0 mm 3 m/S 739 mmHg 71%
    19:00 +17°C° 0 mm 2 m/S 739 mmHg 81%
    20:00 +15°C° 0 mm 2 m/S 739 mmHg 90%
    21:00 +15°C° 0 mm 2 m/S 740 mmHg 92%
    22:00 +13°C° 0 mm 3 m/S 740 mmHg 94%
    23:00 +13°C° 0 mm 3 m/S 740 mmHg 96%

    6 Juni, Samstag

    Zeit Temperatur Niederschläge Wind Luftdruck Luftfeuchtigkeit
    00:00 +13°C° 0 mm 3 m/S 740 mmHg 96%
    01:00 +14°C° 0 mm 3 m/S 739 mmHg 96%
    02:00 +14°C° 0 mm 3 m/S 739 mmHg 95%
    03:00 +14°C° 0.2 mm 3 m/S 739 mmHg 96%
    04:00 +14°C° 0.2 mm 3 m/S 739 mmHg 96%
    05:00 +15°C° 0.2 mm 4 m/S 739 mmHg 97%
    06:00 +15°C° 0.1 mm 4 m/S 739 mmHg 95%
    07:00 +17°C° 0.1 mm 4 m/S 739 mmHg 94%
    08:00 +18°C° 0.1 mm 4 m/S 739 mmHg 92%
    09:00 +19°C° 0.1 mm 4 m/S 740 mmHg 88%
    10:00 +20°C° 0.1 mm 5 m/S 740 mmHg 83%
    11:00 +21°C° 0.1 mm 5 m/S 740 mmHg 78%
    12:00 +20°C° 0.9 mm 5 m/S 741 mmHg 83%
    13:00 +19°C° 0.9 mm 5 m/S 741 mmHg 88%
    14:00 +18°C° 0.9 mm 4 m/S 741 mmHg 93%
    15:00 +19°C° 0.1 mm 4 m/S 742 mmHg 86%
    16:00 +19°C° 0.1 mm 4 m/S 742 mmHg 79%
    17:00 +20°C° 0.1 mm 3 m/S 743 mmHg 73%
    18:00 +18°C° 0 mm 2 m/S 743 mmHg 78%
    19:00 +17°C° 0 mm 2 m/S 744 mmHg 83%
    20:00 +15°C° 0 mm 1 m/S 744 mmHg 89%
    21:00 +14°C° 0 mm 1 m/S 745 mmHg 90%
    22:00 +13°C° 0 mm 1 m/S 745 mmHg 91%
    23:00 +12°C° 0 mm 0 m/S 746 mmHg 91%

    7 Juni, Sonntag

    Zeit Temperatur Niederschläge Wind Luftdruck Luftfeuchtigkeit
    00:00 +12°C° 0 mm 1 m/S 746 mmHg 92%
    01:00 +12°C° 0 mm 1 m/S 747 mmHg 93%
    02:00 +12°C° 0 mm 1 m/S 747 mmHg 93%
    03:00 +12°C° 0 mm 1 m/S 747 mmHg 92%
    04:00 +13°C° 0 mm 1 m/S 747 mmHg 91%
    05:00 +13°C° 0 mm 1 m/S 748 mmHg 90%
    06:00 +15°C° 0 mm 1 m/S 748 mmHg 82%
    07:00 +18°C° 0 mm 1 m/S 748 mmHg 74%
    08:00 +21°C° 0 mm 1 m/S 748 mmHg 66%
    09:00 +22°C° 0 mm 1 m/S 749 mmHg 60%
    10:00 +24°C° 0 mm 1 m/S 749 mmHg 55%
    11:00 +25°C° 0 mm 1 m/S 749 mmHg 49%
    12:00 +26°C° 0 mm 1 m/S 749 mmHg 47%
    13:00 +26°C° 0 mm 1 m/S 749 mmHg 45%
    14:00 +26°C° 0 mm 1 m/S 748 mmHg 43%
    15:00 +26°C° 0 mm 1 m/S 748 mmHg 45%
    16:00 +26°C° 0 mm 1 m/S 748 mmHg 47%
    17:00 +26°C° 0 mm 1 m/S 748 mmHg 50%
    18:00 +24°C° 0 mm 1 m/S 748 mmHg 58%
    19:00 +22°C° 0 mm 1 m/S 748 mmHg 66%
    20:00 +20°C° 0 mm 1 m/S 748 mmHg 74%
    21:00 +19°C° 0 mm 1 m/S 748 mmHg 78%
    22:00 +18°C° 0 mm 1 m/S 748 mmHg 82%
    23:00 +16°C° 0 mm 1 m/S 748 mmHg 86%
    Mehr zeigen